Voltar ao catálogo

SL-12 R/B

AUX MOTOR

AtivoHEO
NORAD 14277·ROCKET BODY·🇷🇺 Russia

Lançado Aug 10, 1983 de Baikonur Cosmodrome

Loading…

Próximas Passagens (próximas 24 horas)

TLE

AtualizadoSource: Space-Track

Época: Sep 14, 2026, 10:15 UTC

1 14277U 83084G   26257.42745787  .00007026  00000-0  17695-2 0  9995
2 14277  51.9721 307.1031 5393580 199.1838 128.3319  4.95447048724099

Acompanhe SL-12 R/B em tempo real com AllMySat

Download on the App Store